Starlink 32600

operational
NORAD ID: 62178 Int'l Des: 2024-225 Owner: SPXS Country: US Constellation: starlink
LEOCIRCULAR

Über Starlink 32600

Beschreibung wird geladen...

Live-Position

3D-Globus wird geladen...

Nächste Überflüge

Höhenverlauf

Altitude vs Time

uPlot chart will show altitude changes over time

Zweizeiliger Elementsatz

1 62178U 24225R 26034.98604101 .00002491 00000-0 21648-3 0 9993
2 62178 69.9991 239.5408 0002531 272.4496 87.6373 14.98335496 65079
Epoch: 3. Feb. 2026 • Age: 14 hours

Aktueller Status

Höhe 592.2 km
Geschwindigkeit 7.56 km/s
Subsatellitenpunkt -57.79°S, 138.76°W
Startdatum 30. Nov. 2024
Alter 1.1 years
Typ internet

Technische Details

Klassifizierung Payload
Masse 730.00 kg
Trockenmasse 700.00 kg
Gesamtmasse 730.00 kg
Länge 0.30 m
Durchmesser 4.10 m
Spannweite 29.00 m
Form Box + pan
Hersteller SPXS
Bus-Typ Starlink V2M
Phasenstatus In Orbit
Besitzer/Staat SPXS/US

Große Konstellationen

Loading constellations...